Home > Weather > Amsterdam > Past weeks

Flag for Netherlands Past Weather in Amsterdam, Netherlands — Yesterday and Last 2 Weeks

Now
66 °F

Passing clouds.


Feels Like: 66 °F
Forecast: 62 / 76 °F
Wind: 6 mph from Northwest

Location: Amsterdam Schiphol Airport

Current Time: Jul 24, 2016 at 1:13:40 AM

Latest Report: Jul 24, 2016 at 12:25 AM


Visibility: N/A

Pressure: 30.12 "Hg

Humidity: 88%

Dew Point: 63 °F

Location of AmsterdamLocation

Past Weather in Amsterdam — Graph

°F

Amsterdam Temperature Yesterday

Maximum temperature yesterday: 77 °F (at 1:25 PM)
Minimum temperature yesterday: 66 °F (at 2:25 AM)
Average temperature yesterday: 70 °F

High & Low Weather Summary for the Past Weeks

 TemperatureHumidityPressure
High91 °F (Jul 20, 3:25 PM)100% (Jul 9, 2:25 AM)30.27 "Hg (Jul 9, 2:25 AM)
Low50 °F (Jul 14, 3:55 AM)38% (Jul 20, 2:55 PM)29.71 "Hg (Jul 11, 3:55 AM)
Average67 °F75%30.02 "Hg
* Reported Jul 8 11:25 PM — Jul 23 11:25 PM, Amsterdam, Weather by CustomWeather, © 2016

Note: Actual official high and low records may vary slightly from our data, if they occured in-between our weather recording intervals... More about our weather records

Advertising

Amsterdam Weather History for the Previous 24 Hours

Scroll right to see more
 ConditionsComfort  
Time TempWeatherWind HumidityBarometerVisibility
11:25 PM
Sat, Jul 23
66 °FClear.3 mph88%30.09 "Hg10 mi
10:55 PM66 °FClear.3 mph88%30.09 "Hg10 mi
10:25 PM68 °FSunny.6 mph83%30.09 "Hg10 mi
9:55 PM68 °FSunny.5 mph83%30.09 "Hg10 mi
9:25 PM68 °FPassing clouds.6 mph83%30.09 "HgN/A
8:55 PM70 °FPassing clouds.8 mph83%30.09 "HgN/A
8:25 PM72 °FPassing clouds.9 mph78%30.09 "HgN/A
7:55 PM72 °FPassing clouds.12 mph78%30.09 "HgN/A
7:25 PM73 °FScattered showers. Passing clouds.12 mph74%30.09 "HgN/A
6:55 PM73 °FPassing clouds.3 mph78%30.09 "HgN/A
6:25 PM73 °FPassing clouds.5 mph78%30.09 "HgN/A
5:55 PM75 °FPassing clouds.6 mph74%30.09 "HgN/A
5:25 PM75 °FScattered showers. Passing clouds.6 mph65%30.09 "HgN/A
4:55 PM75 °FScattered showers. Passing clouds.7 mph69%30.09 "HgN/A
4:25 PM75 °FPassing clouds.8 mph69%30.09 "HgN/A
3:55 PM77 °FPassing clouds.7 mph69%30.09 "HgN/A
3:25 PM77 °FPassing clouds.6 mph65%30.09 "HgN/A
2:55 PM77 °FPassing clouds.5 mph61%30.09 "HgN/A
2:25 PM75 °FScattered clouds.8 mph69%30.09 "HgN/A
1:55 PM75 °FPassing clouds.7 mph69%30.09 "HgN/A
1:25 PM77 °FPassing clouds.6 mph65%30.09 "HgN/A
12:55 PM75 °FPassing clouds.5 mph69%30.09 "HgN/A
12:25 PM75 °FPassing clouds.6 mph69%30.09 "HgN/A
11:55 AM73 °FPassing clouds.6 mph74%30.09 "HgN/A
11:25 AM73 °FPassing clouds.7 mph69%30.09 "HgN/A
10:55 AM72 °FPassing clouds.7 mph73%30.09 "HgN/A
10:25 AM70 °FPassing clouds.8 mph78%30.09 "HgN/A
9:55 AM70 °FPassing clouds.5 mph78%30.09 "HgN/A
9:25 AM70 °FScattered clouds.7 mph78%30.09 "HgN/A
8:55 AM68 °FPartly sunny.7 mph83%30.09 "HgN/A
8:25 AM68 °FBroken clouds.6 mph83%30.09 "HgN/A
7:55 AM66 °FBroken clouds.9 mph88%30.07 "HgN/A
7:25 AM66 °FBroken clouds.8 mph88%30.07 "HgN/A
6:55 AM66 °FBroken clouds.5 mph88%30.07 "Hg6 mi
6:25 AM66 °FPartly cloudy.8 mph88%30.07 "Hg6 mi
5:55 AM66 °FPassing clouds.8 mph88%30.07 "Hg5 mi
5:25 AM66 °FPartly cloudy.6 mph88%30.07 "Hg5 mi
4:55 AM66 °FPassing clouds.7 mph94%30.07 "Hg6 mi
4:25 AM66 °FPassing clouds.6 mph94%30.07 "Hg6 mi
3:55 AM66 °FPassing clouds.7 mph94%30.07 "Hg6 mi
3:25 AM66 °FPartly cloudy.8 mph94%30.07 "Hg6 mi
2:55 AM66 °FPassing clouds.8 mph94%30.07 "Hg6 mi
2:25 AM66 °FPassing clouds.7 mph94%30.07 "Hg6 mi
1:55 AM68 °FPassing clouds.7 mph88%30.07 "Hg6 mi
1:25 AM68 °FPassing clouds.7 mph94%30.07 "Hg6 mi
Weather by CustomWeather, © 2016

See weather overviewHow to use our weather pages